User: anonymous
Location: Unspecified
(0.0000°N, 0.0000°E)
Time: 04:22:45
(UTC+02:00)
Language:

Meteor 2-8 Rocket - Orbit

View from above orbital plane
View from above orbital plane
View from above satellite
View from above satellite

Ground track
Ground track

The orbit data is extracted from the following two-line orbital elements,

1 13114U 82025B   14232.38802958  .00000048  00000-0  29685-4 0  4724
2 13114 082.5409 303.7649 0015240 163.9181 246.7148 13.84627661637623
Epoch (UTC): 20 August 2014 09:18:45
Eccentricity: 0.0015240
inclination: 82.5409°
perigee height: 936 km
apogee height: 958 km
right ascension of ascending node: 303.7649°
argument of perigee: 163.9181°
revolutions per day: 13.84627661
mean anomaly at epoch: 246.7148°
orbit number at epoch: 63762

The dashed part of the orbit path shows where the satellite is in the earth's shadow,  

DLR